Regional Weather Roundup
Issued by NWS

Home | Current Version | Previous Version | Text Only | Print | Product List | Glossary On
Versions: 1 2 3 4 5 6 7 8 9 10 11 12 13 14 15 16 17 18 19 20 21 22 23 24 25 26 27 28 29 30 31 32 33 34 35 36 37 38 39 40 41 42 43 44 45 46 47 48 49 50
000
ASUS43 KLSX 130807
RWRMO

WEATHER SUMMARY FOR MISSOURI
NATIONAL WEATHER SERVICE SPRINGFIELD MO
300 AM CDT SUN JUL 13 2014

NOTE: "FAIR" INDICATES FEW OR NO CLOUDS BELOW 12,000 FEET WITH NO
       SIGNIFICANT WEATHER AND/OR OBSTRUCTIONS TO VISIBILITY.
       CURRENT SKY AND/OR WEATHER CONDITIONS ARE NOT AVAILABLE FOR
       CHILLICOTHE AND FARMINGTON.

MOZ001>031-035>038-043-044-053-054-130900-
...NORTHERN AND WESTERN MISSOURI...

CITY           SKY/WX    TMP DP  RH WIND       PRES   REMARKS
KANSAS CTY INT CLOUDY    78  71  79 NE16      30.03R
KANSAS C DTWN  CLOUDY    83  68  60 NW7       30.01R
LEE`S SUMMIT   MOCLDY    79  66  64 SW12      29.99S
ST JOSEPH      LGT RAIN  71  69  93 NW5       30.02R FOG
CHILLICOTHE      N/A     75  73  93 VRB3      30.00S
KIRKSVILLE     LGT RAIN  74  73  97 N6        29.99S

$$
MOZ066>068-077>081-088>096-101>105-130900-
...SOUTHWEST MISSOURI...

CITY           SKY/WX    TMP DP  RH WIND       PRES   REMARKS
SPRINGFIELD    CLEAR     73  67  81 S8        30.04F
JOPLIN         CLEAR     78  64  61 S12       30.03S

$$
MOZ032>034-039>042-045>050-055>058-069>072-130900-
...CENTRAL MISSOURI...

CITY           SKY/WX    TMP DP  RH WIND       PRES   REMARKS
COLUMBIA       PTCLDY    78  68  71 SW10      29.99S
JEFFERSON CITY CLEAR     78  69  73 CALM      29.98S
ROLLA          CLEAR     73  69  87 S8        30.01S
SEDALIA        CLEAR     78  66  66 SW10      30.00S
OSAGE BEACH    CLEAR     79  66  65 W5        30.01S

$$
MOZ051-052-059>065-130900-
...EAST CENTRAL MISSOURI...

CITY           SKY/WX    TMP DP  RH WIND       PRES   REMARKS
ST LOUIS INTL  MOCLDY    83  70  64 SW12      29.98S
SPIRIT OF STL  CLEAR     79  70  74 SW8       29.96F
ST CHARLES     CLEAR     77  70  79 SW5       29.94F

$$
MOZ072>076-082>087-097>100-106>115-130900-
...SOUTH CENTRAL AND SOUTHEAST MISSOURI...

CITY           SKY/WX    TMP DP  RH WIND       PRES   REMARKS
CAPE GIRARDEAU CLEAR     76  73  91 CALM      30.01F
FARMINGTON       N/A    N/A N/A N/A MISG        N/A
POPLAR BLUFF   CLEAR     77  71  82 SW3       30.01F
WEST PLAINS    CLEAR     74  69  85 SW5       30.07F

$$



USA.gov is the U.S. government's official web portal to all federal, state and local government web resources and services.